Regional Weather Roundup
Issued by NWS

Home | Current Version | Previous Version | Text Only | Print | Product List | Glossary On
Versions: 1 2 3 4 5 6 7 8 9 10 11 12 13 14 15 16 17 18 19 20 21 22 23 24 25 26 27 28 29 30 31 32 33 34 35 36 37 38 39 40 41 42 43 44 45 46 47 48 49 50
000
ASUS45 KPSR 220100
RWRAZ

PRELIMINARY ARIZONA REGIONAL HOURLY WEATHER ROUNDUP
NATIONAL WEATHER SERVICE PHOENIX AZ
600 PM MST TUE OCT 21 2014

NOTE: FAIR INDICATES FEW OR NO CLOUDS BELOW 12,000 FEET WITH NO
SIGNIFICANT WEATHER AND/OR OBSTRUCTIONS TO VISIBILITY.

AZZ001>003-036-220200-
NORTHWEST ARIZONA

CITY           SKY/WX    TMP DP  RH WIND       PRES   REMARKS
KINGMAN        MOCLDY    73  43  33 SW10      29.91R
$$

AZZ004>008-015-016-018-220200-
NORTH CENTRAL ARIZONA

CITY           SKY/WX    TMP DP  RH WIND       PRES   REMARKS
GRAND CANYON   PTCLDY    56  35  45 SW5       30.08S
PRESCOTT       MOCLDY    67  42  40 SW8       30.01S
FLAGSTAFF      PTCLDY    56  37  49 SW5       30.12R
PAYSON         FAIR      64  45  48 S3        30.05R
PAGE           PTCLDY    72  35  25 NE3       29.91S
$$

AZZ009>014-017-220200-
NORTHEAST ARIZONA

CITY           SKY/WX    TMP DP  RH WIND       PRES   REMARKS
WINSLOW        NOT AVBL
SAINT JOHNS    MOCLDY    64  42  44 CALM      30.03R
$$

AZZ023-220200-
GREATER PHOENIX AREA

CITY           SKY/WX    TMP DP  RH WIND       PRES   REMARKS
PHOENIX        PTCLDY    86  50  28 CALM      29.78S
GLENDALE       PTCLDY    84  52  32 S5        29.80S
DEER VALLEY    CLEAR     83  48  29 SW3       29.80S
SCOTTSDALE     CLEAR     84  49  29 CALM      29.82R
MESA-FALCON    PTCLDY    82  50  32 W7        29.80S
MESA-GATEWAY   PTCLDY    82  50  32 CALM      29.82S
CHANDLER       PTCLDY    84  48  28 VRB3      29.80S
$$

AZZ027-028-220200-
SOUTHWEST MARICOPA COUNTY AND PINAL COUNTY

CITY           SKY/WX    TMP DP  RH WIND       PRES   REMARKS
CASA GRANDE    PTCLDY    82  48  30 CALM      29.82R
$$

AZZ503-504-507>509-220200-
SOUTHEAST ARIZONA

CITY           SKY/WX    TMP DP  RH WIND       PRES   REMARKS
TUCSON         MOCLDY    81  43  26 N3        29.88S
DAVIS-MONTHAN  MOCLDY    78  44  30 NW5       29.87R
RYAN FIELD       N/A     81  48  32 NW5       29.87S
NOGALES        PTCLDY    72  41  32 MISG      29.94R
SIERRA VISTA   PTCLDY    68  43  40 SE3       29.99S
SAFFORD        PTCLDY    73  51  46 CALM      29.91R
$$

AZZ020-021-025-026-031-220200-
SOUTHWEST ARIZONA

CITY           SKY/WX    TMP DP  RH WIND       PRES   REMARKS
YUMA           PTCLDY    91  48  22 CALM      29.73S
$$

CAZ031-033-041-043-047-048-061-220200-
SOUTHERN CALIFORNIA

CITY           SKY/WX    TMP DP  RH WIND       PRES   REMARKS
DOWNTOWN L.A.  CLEAR     72  59  63 VRB3      29.83F
L.A. AIRPORT   PTCLDY    69  63  81 W8        29.84F
SAN DIEGO      PTCLDY    71  61  70 W8        29.85S
BURBANK        CLEAR     73  59  61 S6        29.84R
ONTARIO        PTCLDY    76  55  48 W10       29.84R
RIVERSIDE      PTCLDY    76  56  49 W9        29.84R
PALM SPRINGS   MOCLDY    90  36  14 NW13      29.75R
EL CENTRO NAS  PTCLDY    87  52  29 E7        29.70F
IMPERIAL       CLEAR     90  52  27 E5        29.70F
BLYTHE         PTCLDY    89  48  24 SE5       29.72F
$$

NVZ020-UTZ003-220200-
SOUTHERN NEVADA-UTAH

CITY           SKY/WX    TMP DP  RH WIND       PRES   REMARKS
LAS VEGAS      NOT AVBL
SALT LAKE CITY CLOUDY    58  22  24 NW8       30.02S
$$

NMZ009-TXZ055-220200-
NEW MEXICO-WEST TEXAS

CITY           SKY/WX    TMP DP  RH WIND       PRES   REMARKS
ALBUQUERQUE    PTCLDY    64  45  49 S10       30.06R
EL PASO        PTCLDY    67  53  61 E10       30.01R
$$


........................KEY........................
SKY/WX - SKY CONDITION/WEATHER
TMP    - TEMPERATURE IN FAHRENHEIT
DP     - DEW POINT IN FAHRENHEIT
RH     - RELATIVE HUMIDITY IN PERCENT
WIND   - DIRECTION AND SPEED IN MILES PER HOUR (MPH)
VRB    - VARIABLE WIND DIRECTION
PRES   - MEAN SEA LEVEL PRESSURE IN INCHES OF MERCURY
         F - FALLING PRESSURE   R - RISING PRESSURE
         S - STEADY PRESSURE
VSB    - VISIBILITY IN MILES
HX     - HEAT INDEX IN FAHRENHEIT
WCI    - WIND CHILL INDEX IN FAHRENHEIT
TC     - TEMPERATURE IN CELSIUS WHICH IS ALSO KNOWN AS
         TEMPERATURE IN CENTIGRADE
AFB    - AIR FORCE BASE
         LUKE AFB IS LUKE AIR FORCE BASE
         DAVIS-MONTHAN IS DAVIS-MONTHAN AIR FORCE BASE
NAS    - NAVAL AIR STATION
         EL CENTRO NAS IS EL CENTRO NAVAL AIR STATION
N/A    - NOT AVAILABLE



USA.gov is the U.S. government's official web portal to all federal, state and local government web resources and services.